When you browse on this site, cookies collect data to enhance your experience and personalize the content and advertising you see.
Visit our Privacy Policy to learn more. By continuing to use the site, you agree to this use of cookies and data.
  • In Schweiz
  • Länderverzeichnis
  • Für 7 Tage
  • Wassertemperatur
  • Wetterkarte
  • Widgets
  • user-avatar
    Anmelden

    Stündliche Wetter Scharan

    Heute, 5 April, Sonntag

    Zeit Temperatur Niederschläge Wind Luftdruck Luftfeuchtigkeit
    00:00 +9°C° 0.1 mm 3 m/S 587 mmHg 70%
    01:00 +8°C° 0.1 mm 3 m/S 586 mmHg 74%
    02:00 +8°C° 0.1 mm 3 m/S 586 mmHg 78%
    03:00 +7°C° 0.2 mm 3 m/S 586 mmHg 80%
    04:00 +7°C° 0.2 mm 2 m/S 586 mmHg 81%
    05:00 +6°C° 0.2 mm 2 m/S 586 mmHg 83%
    06:00 +7°C° 0 mm 2 m/S 586 mmHg 81%
    07:00 +7°C° 0 mm 3 m/S 586 mmHg 79%
    08:00 +7°C° 0 mm 3 m/S 587 mmHg 77%
    09:00 +8°C° 0 mm 3 m/S 587 mmHg 71%
    10:00 +9°C° 0 mm 2 m/S 588 mmHg 65%
    11:00 +10°C° 0 mm 2 m/S 588 mmHg 59%
    12:00 +12°C° 0 mm 2 m/S 588 mmHg 55%
    13:00 +13°C° 0 mm 1 m/S 588 mmHg 51%
    14:00 +14°C° 0 mm 1 m/S 588 mmHg 47%
    15:00 +14°C° 0.1 mm 2 m/S 588 mmHg 44%
    16:00 +15°C° 0.1 mm 2 m/S 588 mmHg 41%
    17:00 +14°C° 0.1 mm 3 m/S 588 mmHg 38%
    18:00 +14°C° 0 mm 3 m/S 588 mmHg 42%
    19:00 +13°C° 0 mm 3 m/S 589 mmHg 45%
    20:00 +14°C° 0 mm 2 m/S 589 mmHg 49%
    21:00 +13°C° 0 mm 2 m/S 589 mmHg 50%
    22:00 +13°C° 0 mm 2 m/S 588 mmHg 52%
    23:00 +12°C° 0 mm 2 m/S 588 mmHg 53%

    Morgen, 6 April, Montag

    Zeit Temperatur Niederschläge Wind Luftdruck Luftfeuchtigkeit
    00:00 +10°C° 0 mm 2 m/S 588 mmHg 54%
    01:00 +10°C° 0 mm 2 m/S 587 mmHg 55%
    02:00 +9°C° 0 mm 2 m/S 586 mmHg 56%
    03:00 +10°C° 0 mm 1 m/S 586 mmHg 58%
    04:00 +9°C° 0 mm 1 m/S 586 mmHg 60%
    05:00 +9°C° 0 mm 1 m/S 586 mmHg 61%
    06:00 +10°C° 0 mm 1 m/S 586 mmHg 59%
    07:00 +10°C° 0 mm 1 m/S 587 mmHg 56%
    08:00 +10°C° 0 mm 2 m/S 588 mmHg 54%
    09:00 +10°C° 0.5 mm 2 m/S 587 mmHg 58%
    10:00 +9°C° 0.5 mm 3 m/S 587 mmHg 61%
    11:00 +9°C° 0.5 mm 3 m/S 587 mmHg 65%
    12:00 +10°C° 0.6 mm 4 m/S 587 mmHg 61%
    13:00 +10°C° 0.6 mm 4 m/S 587 mmHg 57%
    14:00 +10°C° 0.6 mm 5 m/S 587 mmHg 53%
    15:00 +12°C° 0.4 mm 5 m/S 587 mmHg 47%
    16:00 +12°C° 0.4 mm 5 m/S 586 mmHg 41%
    17:00 +13°C° 0.4 mm 5 m/S 586 mmHg 35%
    18:00 +12°C° 0.1 mm 5 m/S 586 mmHg 40%
    19:00 +11°C° 0.1 mm 4 m/S 586 mmHg 44%
    20:00 +10°C° 0.1 mm 4 m/S 586 mmHg 49%
    21:00 +8°C° 0.1 mm 5 m/S 585 mmHg 53%
    22:00 +7°C° 0.1 mm 5 m/S 585 mmHg 56%
    23:00 +6°C° 0.1 mm 5 m/S 585 mmHg 60%

    übermorgen, 7 April, Dienstag

    Zeit Temperatur Niederschläge Wind Luftdruck Luftfeuchtigkeit
    00:00 +6°C° 0 mm 4 m/S 585 mmHg 62%
    01:00 +7°C° 0 mm 2 m/S 584 mmHg 65%
    02:00 +7°C° 0 mm 1 m/S 584 mmHg 67%
    03:00 +7°C° 0 mm 1 m/S 584 mmHg 68%
    04:00 +7°C° 0 mm 1 m/S 584 mmHg 70%
    05:00 +6°C° 0 mm 1 m/S 584 mmHg 71%
    06:00 +6°C° 0 mm 2 m/S 584 mmHg 71%
    07:00 +5°C° 0 mm 3 m/S 585 mmHg 70%
    08:00 +7°C° 0 mm 3 m/S 585 mmHg 69%
    09:00 +8°C° 0 mm 3 m/S 585 mmHg 62%
    10:00 +8°C° 0 mm 4 m/S 586 mmHg 55%
    11:00 +10°C° 0 mm 4 m/S 586 mmHg 47%
    12:00 +11°C° 0 mm 4 m/S 586 mmHg 42%
    13:00 +13°C° 0 mm 4 m/S 586 mmHg 38%
    14:00 +14°C° 0 mm 4 m/S 586 mmHg 33%
    15:00 +14°C° 0 mm 3 m/S 586 mmHg 32%
    16:00 +14°C° 0 mm 3 m/S 586 mmHg 30%
    17:00 +14°C° 0 mm 3 m/S 585 mmHg 29%
    18:00 +15°C° 0 mm 2 m/S 585 mmHg 34%
    19:00 +14°C° 0 mm 2 m/S 585 mmHg 39%
    20:00 +13°C° 0 mm 2 m/S 585 mmHg 44%
    21:00 +13°C° 0 mm 1 m/S 585 mmHg 47%
    22:00 +12°C° 0 mm 1 m/S 585 mmHg 51%
    23:00 +12°C° 0 mm 1 m/S 585 mmHg 54%

    8 April, Mittwoch

    Zeit Temperatur Niederschläge Wind Luftdruck Luftfeuchtigkeit
    00:00 +11°C° 0 mm 1 m/S 585 mmHg 56%
    01:00 +10°C° 0 mm 2 m/S 585 mmHg 59%
    02:00 +9°C° 0 mm 2 m/S 584 mmHg 61%
    03:00 +8°C° 0 mm 2 m/S 584 mmHg 64%
    04:00 +8°C° 0 mm 2 m/S 584 mmHg 68%
    05:00 +7°C° 0 mm 2 m/S 583 mmHg 71%
    06:00 +8°C° 0 mm 2 m/S 584 mmHg 69%
    07:00 +8°C° 0 mm 2 m/S 584 mmHg 66%
    08:00 +10°C° 0 mm 1 m/S 585 mmHg 64%
    09:00 +10°C° 0 mm 2 m/S 586 mmHg 58%
    10:00 +12°C° 0 mm 2 m/S 586 mmHg 51%
    11:00 +14°C° 0 mm 2 m/S 587 mmHg 45%
    12:00 +15°C° 0 mm 2 m/S 587 mmHg 41%
    13:00 +16°C° 0 mm 2 m/S 587 mmHg 36%
    14:00 +17°C° 0 mm 2 m/S 587 mmHg 32%
    15:00 +17°C° 0 mm 3 m/S 587 mmHg 32%
    16:00 +17°C° 0 mm 3 m/S 586 mmHg 31%
    17:00 +17°C° 0 mm 4 m/S 586 mmHg 31%
    18:00 +15°C° 0 mm 5 m/S 586 mmHg 36%
    19:00 +14°C° 0 mm 5 m/S 586 mmHg 42%
    20:00 +13°C° 0 mm 5 m/S 585 mmHg 47%
    21:00 +13°C° 0 mm 5 m/S 586 mmHg 50%
    22:00 +12°C° 0 mm 5 m/S 586 mmHg 52%
    23:00 +12°C° 0 mm 5 m/S 586 mmHg 55%

    9 April, Donnerstag

    Zeit Temperatur Niederschläge Wind Luftdruck Luftfeuchtigkeit
    00:00 +11°C° 0 mm 4 m/S 585 mmHg 58%
    01:00 +11°C° 0 mm 3 m/S 585 mmHg 61%
    02:00 +10°C° 0 mm 2 m/S 584 mmHg 63%
    03:00 +10°C° 0 mm 2 m/S 584 mmHg 65%
    04:00 +10°C° 0 mm 2 m/S 584 mmHg 67%
    05:00 +9°C° 0 mm 2 m/S 584 mmHg 69%
    06:00 +10°C° 0 mm 2 m/S 584 mmHg 66%
    07:00 +10°C° 0 mm 2 m/S 585 mmHg 63%
    08:00 +10°C° 0 mm 2 m/S 585 mmHg 60%
    09:00 +12°C° 0 mm 2 m/S 586 mmHg 56%
    10:00 +14°C° 0 mm 1 m/S 586 mmHg 51%
    11:00 +15°C° 0 mm 1 m/S 587 mmHg 47%
    12:00 +16°C° 0 mm 2 m/S 587 mmHg 42%
    13:00 +17°C° 0 mm 2 m/S 587 mmHg 38%
    14:00 +18°C° 0 mm 3 m/S 587 mmHg 33%
    15:00 +18°C° 0 mm 3 m/S 587 mmHg 33%
    16:00 +18°C° 0 mm 4 m/S 587 mmHg 32%
    17:00 +18°C° 0 mm 4 m/S 587 mmHg 31%
    18:00 +17°C° 0 mm 4 m/S 587 mmHg 37%
    19:00 +15°C° 0 mm 5 m/S 587 mmHg 44%
    20:00 +15°C° 0 mm 5 m/S 587 mmHg 50%
    21:00 +14°C° 0 mm 5 m/S 587 mmHg 55%
    22:00 +13°C° 0 mm 5 m/S 587 mmHg 60%
    23:00 +12°C° 0 mm 4 m/S 587 mmHg 65%

    10 April, Freitag

    Zeit Temperatur Niederschläge Wind Luftdruck Luftfeuchtigkeit
    00:00 +12°C° 0 mm 4 m/S 587 mmHg 68%
    01:00 +11°C° 0 mm 3 m/S 587 mmHg 70%
    02:00 +12°C° 0 mm 2 m/S 586 mmHg 73%
    03:00 +10°C° 0 mm 2 m/S 586 mmHg 75%
    04:00 +10°C° 0 mm 2 m/S 586 mmHg 77%
    05:00 +10°C° 0 mm 1 m/S 586 mmHg 79%
    06:00 +10°C° 0 mm 2 m/S 586 mmHg 76%
    07:00 +10°C° 0 mm 2 m/S 587 mmHg 73%
    08:00 +12°C° 0 mm 2 m/S 587 mmHg 71%
    09:00 +13°C° 0 mm 1 m/S 588 mmHg 63%
    10:00 +14°C° 0 mm 1 m/S 588 mmHg 55%
    11:00 +16°C° 0 mm 1 m/S 589 mmHg 48%
    12:00 +18°C° 0 mm 1 m/S 589 mmHg 43%
    13:00 +18°C° 0 mm 2 m/S 589 mmHg 38%
    14:00 +19°C° 0 mm 2 m/S 589 mmHg 33%
    15:00 +19°C° 0 mm 2 m/S 589 mmHg 32%
    16:00 +19°C° 0 mm 2 m/S 589 mmHg 32%
    17:00 +19°C° 0 mm 2 m/S 589 mmHg 32%
    18:00 +19°C° 0 mm 2 m/S 589 mmHg 36%
    19:00 +18°C° 0 mm 3 m/S 589 mmHg 40%
    20:00 +17°C° 0 mm 3 m/S 589 mmHg 44%
    21:00 +15°C° 0 mm 4 m/S 590 mmHg 50%
    22:00 +15°C° 0 mm 4 m/S 590 mmHg 55%
    23:00 +14°C° 0 mm 4 m/S 590 mmHg 60%
    Mehr zeigen